Temperature
9 9 10 11 11 12 13 12 13 13 13 13 14 15 15 15 14 15 15 15 15 14 14 13 13 13 13 14 14 14 14 14 14 14 14 13 13 13 13 13 13 13 13 13
9 9 10 11 11 11 11 12 12 12 12 13 13 14 15 15 15 15 15 15 15 14 13 13 13 13 13 13 14 14 14 14 14 14 13 13 13 13 13 13 13 13 12 12
9 10 10 10 10 10 11 11 12 12 12 12 12 14 15 15 14 14 14 14 14 13 13 13 13 13 13 13 14 14 14 14 14 13 13 13 13 13 12 12 12 12 12 12
9 9 9 9 10 10 10 11 12 11 11 12 12 13 15 15 14 14 14 14 14 13 13 12 12 13 13 13 13 13 13 13 13 13 13 13 12 12 12 12 12 12 12 12
8 9 9 9 10 10 11 11 11 11 11 11 12 12 15 14 14 15 15 14 13 12 12 12 12 13 13 13 13 13 13 13 13 13 12 12 12 12 12 12 12 12 12 11
8 8 9 9 9 10 10 10 10 10 10 10 12 12 14 14 15 15 15 13 12 12 11 11 11 12 12 12 13 13 13 12 12 12 12 12 12 12 11 11 11 11 11 11
7 8 8 8 8 9 9 9 9 9 9 11 12 12 14 14 14 14 14 13 11 11 10 10 11 11 11 12 12 12 12 12 12 12 12 11 11 11 11 11 11 10 10 10
7 7 8 8 8 8 9 10 10 10 11 12 11 12 14 12 12 11 11 11 10 10 9 9 10 10 11 11 11 11 11 11 11 11 11 11 11 10 10 10 10 10 10 10
7 7 8 8 8 9 8 9 10 10 10 11 11 12 12 11 11 10 10 10 9 9 8 9 9 9 10 11 11 11 11 11 11 11 10 10 10 10 10 10 10 10 9 10
6 6 7 7 8 8 9 9 9 9 10 11 12 11 12 11 10 10 10 9 8 8 8 8 8 9 9 10 10 10 10 10 10 10 10 10 10 9 9 9 9 9 9 9
6 6 6 7 6 7 7 7 8 9 10 11 11 12 11 10 10 9 9 8 7 7 7 7 7 8 8 8 9 9 9 10 10 10 9 9 9 9 9 9 9 9 8 8
5 6 6 6 6 6 7 7 8 8 8 9 11 11 9 9 9 8 8 7 6 6 6 6 6 7 7 7 8 8 9 9 9 9 9 9 9 9 8 8 8 8 8 8
4 5 5 6 6 6 6 6 7 7 8 9 10 10 8 7 7 7 6 6 5 5 5 5 5 6 6 6 7 8 8 9 9 8 8 8 8 8 8 8 8 8 7 7
4 4 5 6 6 5 5 5 6 7 7 8 9 9 8 7 7 6 5 5 5 4 4 4 4 5 5 6 6 7 7 8 8 8 7 7 7 7 7 7 7 7 7 7
3 3 3 4 5 5 5 5 5 6 7 7 8 8 8 7 6 6 5 4 4 3 3 3 3 4 4 5 5 6 6 7 7 7 7 7 7 6 6 6 6 6 6 6
3 3 3 3 4 4 4 4 5 5 6 6 7 7 6 6 5 4 4 3 3 3 3 3 3 3 4 4 5 5 6 6 6 6 6 6 6 6 6 6 5 5 5 5
2 2 3 4 4 4 4 4 4 4 5 5 6 6 5 5 4 4 3 3 3 2 2 2 3 3 3 4 4 5 5 5 5 5 5 5 5 5 5 5 5 5 5 5
1 2 2 3 3 3 4 4 4 4 4 4 5 4 4 4 3 3 2 2 2 2 2 2 2 3 3 3 4 4 4 4 5 5 5 5 5 5 5 5 4 4 4 4
2 2 2 3 3 4 4 3 2 3 3 3 3 3 3 2 3 2 1 1 1 1 1 2 2 3 3 3 3 4 4 4 4 4 4 4 4 4 4 4 4 4 4 3
1 1 2 2 3 3 4 3 2 3 3 3 2 2 2 2 3 3 1 1 1 1 1 2 2 3 3 3 3 3 3 3 3 3 3 3 3 3 3 3 3 3 3 3
0 1 1 2 2 3 2 1 2 3 3 2 1 1 1 2 2 1 0 0 0 1 1 1 2 2 2 2 2 2 2 2 2 2 2 2 2 2 2 2 2 2 2 2
0 1 1 1 2 2 1 1 2 2 1 0 0 0 0 -0 -0 -0 -0 -0 -0 0 1 1 1 1 1 1 1 1 2 1 1 2 2 2 2 2 2 1 1 1 1 1
0 0 1 1 2 1 -0 -0 -0 -1 -0 -0 -0 -1 -1 -1 -1 -1 -1 -1 -1 -0 -0 0 0 0 1 1 1 1 1 1 1 1 1 1 1 1 1 1 1 1 0 0
-0 -1 -0 0 1 -0 -1 -1 -1 -1 -1 -1 -1 -1 -1 -1 -2 -2 -2 -2 -1 -1 -1 -1 -0 -0 -0 0 0 0 0 0 0 0 -0 -0 -0 -0 -0 -0 -0 -0 -0 -0
-1 -1 -1 -0 -0 -1 -1 -2 -2 -2 -2 -2 -2 -2 -2 -2 -2 -2 -2 -2 -2 -2 -2 -2 -1 -1 -1 -1 -1 -1 -1 -1 -1 -1 -1 -1 -1 -1 -1 -1 -1 -1 -1 -1
-2 -1 -1 0 -1 -1 -1 -2 -2 -2 -2 -2 -2 -2 -2 -2 -2 -2 -3 -2 -2 -2 -2 -2 -2 -2 -2 -2 -2 -1 -1 -1 -1 -1 -1 -1 -1 -2 -2 -2 -2 -2 -2 -2
Wind_Speed
8 9 14 16 17 12 11 13 13 11 6 10 14 15 13 11 12 13 13 12 13 13 11 11 10 11 11 11 11 11 10 10 9 7 7 6 5 5 4 4 6 7 7 7
8 14 14 12 13 12 12 13 12 7 6 8 12 15 14 13 14 13 13 13 13 12 11 11 11 11 12 12 12 11 11 10 10 8 6 5 5 4 4 4 5 6 6 7
12 8 10 11 13 14 14 15 13 8 5 7 8 13 15 13 13 13 13 12 12 12 13 13 12 12 11 12 12 10 11 10 10 9 6 5 4 4 4 4 4 5 6 6
9 6 9 12 14 15 13 12 11 9 8 6 8 9 12 12 13 14 14 13 12 12 12 11 12 12 12 11 10 10 11 10 10 10 9 10 7 7 6 5 4 5 5 6
6 6 9 12 12 12 9 9 10 10 9 7 9 8 8 9 13 14 14 13 12 11 11 11 11 11 10 9 9 9 10 10 10 10 10 10 8 6 5 5 6 5 4 5
4 4 6 7 7 8 6 7 5 5 6 9 13 12 9 9 13 13 12 11 10 9 9 9 9 9 8 8 8 8 9 9 9 10 10 10 9 8 7 7 6 5 4 4
3 3 3 4 5 7 9 8 5 7 8 9 9 10 9 4 6 9 9 8 7 7 8 8 8 9 9 9 9 9 9 9 9 9 9 9 9 9 9 8 7 6 5 4
4 4 4 4 6 6 11 11 7 6 8 5 7 10 5 1 2 3 5 6 6 6 6 7 8 8 8 9 9 9 9 8 8 8 8 8 8 7 6 7 6 6 5 5
3 4 3 3 4 7 8 9 5 3 2 4 7 5 4 1 1 1 3 4 5 5 5 6 6 7 8 8 8 9 9 8 8 7 7 7 7 7 6 6 5 4 4 4
2 3 2 1 2 3 5 6 4 5 6 6 6 6 3 2 2 2 2 3 3 3 4 4 5 6 6 7 7 8 8 8 7 7 6 5 6 6 6 5 5 5 4 4
1 2 2 2 4 6 5 6 5 5 4 5 5 3 0 2 2 2 2 2 2 2 3 3 3 4 5 6 6 7 7 7 6 6 6 6 5 5 5 5 5 4 4 5
1 2 2 3 2 3 5 6 7 6 4 4 4 2 3 2 2 0 1 1 2 2 2 3 4 4 5 6 6 6 6 6 6 6 6 5 4 4 4 4 4 4 4 4
1 2 2 2 2 0 3 4 5 5 4 5 6 3 3 4 4 3 2 2 2 3 3 4 4 5 5 5 5 5 5 5 5 5 5 5 4 4 4 3 3 3 3 3
1 1 3 4 3 2 4 4 4 5 5 6 7 6 3 4 4 4 3 2 2 3 3 4 4 4 4 4 4 4 4 4 5 5 4 4 3 3 3 3 3 3 3 3
0 1 2 3 4 2 3 5 5 6 7 7 7 7 5 5 4 3 3 2 2 3 3 3 3 4 4 4 4 4 4 4 4 4 4 3 3 3 3 3 2 2 2 2
1 2 2 3 3 2 2 5 6 7 7 8 8 8 6 4 2 2 2 2 1 2 2 2 3 3 3 3 3 4 3 3 4 4 3 3 3 2 2 2 2 2 2 2
1 2 2 3 3 2 3 5 6 6 6 7 8 8 5 4 2 2 1 1 0 1 1 2 3 3 3 3 3 3 3 3 3 3 3 3 3 2 2 2 2 2 2 2
3 3 2 2 1 4 1 2 4 5 4 4 5 5 4 4 3 2 2 1 1 1 1 2 2 3 3 3 3 4 3 3 3 3 3 2 2 2 2 1 2 2 1 2
3 3 2 2 3 4 3 3 4 4 4 4 4 4 4 2 1 2 4 2 1 1 1 2 2 3 3 3 4 4 4 4 3 3 2 2 1 2 1 1 1 1 1 1
1 2 2 2 3 3 3 4 5 4 3 4 3 4 4 2 2 3 3 2 2 2 2 3 3 3 3 3 3 4 3 3 3 2 2 1 1 1 1 1 1 1 1 1
1 1 2 3 3 3 4 6 2 3 3 5 3 3 2 2 3 2 2 2 3 3 3 3 3 3 3 2 3 3 3 2 2 2 1 1 1 0 0 1 1 1 1 1
2 2 3 3 3 4 3 1 1 3 4 4 4 3 2 2 2 2 2 2 3 3 3 3 3 4 3 2 2 2 2 2 1 1 1 1 1 1 0 0 1 1 1 1
3 3 3 3 3 3 2 2 4 5 4 4 4 3 2 1 2 2 2 2 2 3 3 3 3 3 3 3 2 2 1 1 1 1 1 1 1 1 0 0 1 1 1 1
2 3 4 4 4 4 4 4 5 4 4 4 4 3 2 1 1 2 2 2 2 2 2 2 2 3 3 3 2 2 1 1 0 1 1 1 1 1 1 0 0 1 1 1
5 3 4 5 6 6 5 5 5 4 3 3 3 3 2 1 1 1 1 2 2 2 2 1 2 2 2 3 2 2 1 0 0 1 1 1 1 0 1 1 1 1 1 2
4 5 5 6 5 5 6 5 4 4 4 3 3 3 3 1 1 1 1 2 2 1 2 2 2 2 2 2 2 2 1 1 0 0 1 1 1 0 0 0 1 2 1 2
Wind_Direction
187 199 206 204 208 221 216 216 222 222 215 219 229 237 236 228 225 227 224 218 214 212 203 192 189 186 183 184 183 181 178 177 174 171 173 174 178 178 180 179 184 186 187 187
191 216 216 211 210 214 214 218 224 222 214 226 239 247 244 235 231 227 225 220 214 205 195 190 187 186 187 187 188 186 186 183 182 180 177 181 174 179 179 173 180 187 189 189
206 214 201 203 203 208 215 219 219 218 223 229 247 252 237 229 228 230 229 227 219 206 199 191 189 189 189 190 191 190 188 186 184 177 168 159 161 170 179 180 183 190 193 192
219 218 199 203 210 209 219 217 217 210 211 222 218 249 232 220 220 221 220 217 216 208 202 195 191 190 191 192 191 193 189 187 184 180 180 180 186 189 194 187 186 185 189 187
212 203 199 209 213 210 217 200 206 213 225 239 224 242 244 209 218 219 217 213 211 206 201 196 193 191 190 185 184 188 189 187 186 188 187 189 193 190 181 180 180 181 182 183
229 220 216 216 215 209 175 163 168 202 217 233 222 223 247 215 219 216 212 210 208 201 199 199 194 189 186 180 178 180 184 185 186 190 191 192 189 184 179 182 182 184 184 185
217 201 196 193 181 181 183 173 180 194 208 229 201 218 244 237 231 221 212 208 202 197 195 193 188 186 184 181 179 179 179 181 184 188 192 192 190 188 187 186 188 185 187 191
207 204 189 188 197 190 194 196 205 205 210 207 195 222 233 258 243 232 220 210 200 195 196 194 189 187 185 182 179 179 178 177 178 183 188 189 189 189 190 191 189 190 193 196
221 226 208 211 206 193 193 207 234 250 220 215 208 227 262 285 262 223 208 199 197 200 200 196 188 187 183 179 179 178 176 173 174 177 179 182 184 185 182 182 186 191 194 192
250 239 241 223 184 208 218 187 194 208 200 215 212 222 230 235 237 218 216 211 205 200 192 188 186 183 177 174 174 174 172 170 170 170 172 174 178 180 179 179 183 187 192 191
249 227 211 179 199 202 184 189 206 211 242 227 216 209 313 261 265 229 217 206 188 178 173 171 170 170 163 157 159 160 162 161 160 162 163 165 171 173 175 180 185 189 195 197
277 237 222 220 255 259 208 208 204 207 209 232 234 222 33 355 351 296 161 109 125 137 142 144 141 139 145 148 151 152 154 156 158 159 159 158 162 168 172 178 186 193 199 200
291 223 205 199 199 256 223 237 227 226 221 224 223 216 40 22 27 35 61 76 91 108 121 127 127 127 130 135 145 147 147 148 150 153 153 151 157 167 173 178 186 194 199 198
336 252 228 224 259 232 235 246 231 216 223 230 238 249 287 341 357 10 25 46 73 92 111 116 118 119 123 124 124 132 135 138 142 144 148 150 158 169 174 176 182 193 197 198
19 240 246 275 289 236 261 263 243 231 237 236 243 254 279 301 317 343 4 30 64 80 95 111 115 116 119 119 117 113 119 129 134 137 140 147 153 158 164 172 182 186 191 198
329 251 255 264 277 252 287 296 261 251 249 248 255 258 295 311 347 8 9 29 59 77 88 102 115 118 120 119 117 113 110 114 126 128 128 132 139 144 153 163 173 173 176 185
262 236 240 259 303 261 273 278 257 243 247 247 252 266 293 310 319 329 350 41 84 89 91 95 110 117 111 109 111 111 109 111 116 120 122 125 127 125 133 152 166 174 182 191
248 239 231 258 258 231 248 334 278 251 265 276 274 288 293 290 301 331 1 11 35 77 90 85 85 93 95 96 97 101 102 103 107 110 109 107 117 120 124 149 173 187 196 207
234 223 214 215 227 255 281 314 297 257 264 312 295 304 319 320 324 354 3 1 5 77 86 83 78 86 91 91 96 101 96 95 94 88 82 82 108 128 136 157 186 192 194 220
202 212 217 212 219 239 305 328 313 243 258 332 315 300 310 319 269 295 348 12 36 50 64 69 71 78 81 80 92 99 93 85 78 70 59 55 70 133 173 203 217 210 203 223
237 233 230 229 231 258 319 319 271 213 294 332 326 303 300 295 286 315 9 36 46 56 57 60 67 66 62 72 91 92 82 65 44 46 51 47 49 72 230 236 230 215 203 213
226 226 229 229 232 259 348 8 205 294 321 323 322 317 321 335 0 17 30 45 53 55 48 50 56 51 45 57 87 88 66 39 41 54 53 36 27 25 258 225 228 211 196 210
228 241 253 234 248 314 315 293 312 312 307 316 314 313 319 343 354 4 12 22 32 45 42 45 60 56 39 34 55 75 41 30 53 70 55 39 29 18 346 223 223 214 201 216
259 268 248 253 263 285 294 303 313 312 308 317 318 317 321 335 344 347 1 13 15 22 30 43 59 55 35 27 40 56 38 23 49 71 54 41 37 25 13 356 268 221 219 229
273 256 254 260 277 285 282 302 311 316 323 333 336 334 333 354 350 334 337 355 359 8 23 44 59 54 30 19 26 33 28 27 50 43 28 13 16 17 11 359 325 280 270 248
255 249 253 264 274 274 285 300 308 311 315 319 328 335 334 323 323 330 330 342 3 20 33 39 43 45 27 19 16 17 19 12 8 348 335 328 336 341 338 348 4 26 327 317
Height
1470 1471 1467 1465 1468 1467 1468 1470 1471 1472 1475 1476 1473 1472 1472 1474 1476 1477 1478 1479 1481 1484 1487 1489 1492 1495 1498 1501 1504 1507 1509 1512 1515 1517 1519 1521 1523 1525 1527 1528 1530 1531 1533 1534
1468 1465 1463 1466 1468 1469 1470 1470 1470 1472 1475 1475 1472 1470 1469 1470 1471 1472 1474 1475 1477 1480 1483 1485 1487 1490 1494 1497 1500 1503 1506 1509 1511 1514 1516 1518 1520 1522 1524 1525 1527 1528 1530 1531
1460 1460 1463 1466 1467 1469 1468 1468 1468 1471 1474 1474 1474 1467 1463 1464 1467 1469 1470 1472 1474 1476 1478 1481 1483 1486 1489 1493 1496 1499 1502 1505 1508 1510 1513 1515 1517 1519 1521 1522 1523 1525 1526 1528
1460 1461 1462 1463 1464 1465 1465 1466 1468 1470 1472 1470 1472 1463 1452 1456 1460 1462 1465 1467 1469 1472 1474 1477 1479 1482 1485 1489 1493 1496 1499 1502 1504 1507 1509 1511 1513 1515 1517 1519 1520 1522 1523 1524
1459 1459 1460 1460 1461 1464 1463 1465 1468 1469 1470 1471 1469 1467 1448 1453 1455 1455 1458 1462 1465 1468 1470 1473 1475 1478 1481 1485 1488 1492 1495 1498 1501 1503 1506 1508 1510 1512 1514 1515 1517 1518 1519 1521
1459 1460 1460 1459 1461 1464 1465 1467 1469 1470 1470 1471 1461 1461 1447 1446 1446 1449 1454 1458 1461 1464 1467 1469 1472 1475 1478 1481 1484 1487 1490 1494 1497 1499 1502 1504 1506 1508 1510 1512 1513 1514 1515 1517
1459 1459 1460 1461 1462 1464 1463 1465 1468 1469 1468 1458 1455 1456 1445 1443 1446 1448 1451 1455 1458 1461 1463 1466 1468 1471 1473 1476 1479 1483 1486 1489 1492 1495 1498 1500 1503 1505 1507 1508 1509 1511 1512 1513
1458 1457 1458 1459 1459 1459 1459 1458 1457 1456 1452 1449 1456 1450 1441 1446 1448 1449 1451 1453 1456 1458 1460 1462 1464 1467 1469 1472 1476 1479 1482 1485 1488 1491 1494 1497 1499 1501 1503 1505 1506 1507 1508 1509
1458 1457 1457 1458 1458 1459 1459 1456 1456 1454 1453 1451 1447 1445 1444 1446 1448 1449 1450 1452 1454 1456 1458 1459 1461 1464 1466 1469 1472 1475 1478 1481 1484 1487 1490 1493 1495 1497 1499 1501 1502 1504 1505 1506
1463 1461 1458 1459 1459 1459 1458 1458 1459 1457 1452 1444 1441 1443 1441 1444 1445 1448 1449 1450 1452 1454 1455 1457 1459 1461 1463 1466 1469 1472 1475 1478 1481 1484 1487 1489 1491 1493 1495 1497 1498 1500 1501 1502
1464 1463 1460 1459 1459 1458 1460 1460 1457 1454 1450 1441 1438 1441 1444 1445 1446 1448 1448 1450 1451 1452 1454 1455 1457 1459 1461 1463 1466 1469 1472 1475 1478 1481 1483 1486 1488 1490 1492 1493 1495 1496 1497 1498
1465 1463 1460 1460 1461 1460 1459 1457 1456 1453 1453 1447 1440 1445 1448 1448 1449 1449 1449 1450 1451 1452 1453 1454 1456 1457 1459 1461 1464 1466 1469 1473 1476 1478 1480 1483 1485 1486 1488 1490 1491 1492 1493 1494
1466 1465 1460 1457 1462 1462 1460 1459 1457 1454 1452 1448 1443 1446 1450 1450 1450 1451 1451 1451 1451 1452 1453 1453 1455 1456 1458 1460 1462 1465 1467 1470 1473 1475 1477 1479 1481 1483 1485 1486 1487 1489 1489 1490
1468 1467 1462 1458 1457 1460 1461 1460 1458 1455 1452 1450 1447 1445 1449 1451 1451 1452 1452 1452 1452 1452 1453 1453 1454 1456 1457 1459 1461 1463 1465 1468 1470 1473 1475 1477 1479 1480 1482 1483 1484 1485 1486 1486
1469 1468 1466 1464 1462 1462 1462 1460 1458 1456 1453 1452 1450 1450 1450 1452 1453 1454 1453 1453 1453 1453 1453 1454 1454 1456 1457 1459 1460 1462 1464 1466 1468 1470 1472 1474 1476 1477 1479 1480 1481 1481 1482 1483
1470 1469 1467 1464 1462 1461 1461 1460 1458 1457 1456 1454 1452 1452 1454 1455 1455 1455 1454 1454 1453 1453 1453 1454 1455 1456 1457 1458 1459 1461 1463 1465 1467 1469 1470 1472 1473 1475 1476 1477 1478 1478 1479 1479
1471 1471 1467 1461 1462 1460 1460 1461 1459 1458 1457 1455 1452 1454 1455 1455 1455 1455 1455 1454 1454 1454 1454 1454 1455 1456 1457 1458 1459 1461 1462 1464 1466 1467 1469 1470 1471 1472 1473 1474 1475 1475 1475 1476
1472 1470 1467 1463 1464 1464 1460 1461 1460 1458 1457 1457 1456 1455 1455 1455 1455 1455 1455 1455 1454 1454 1454 1454 1455 1456 1457 1458 1459 1460 1462 1463 1464 1466 1467 1468 1469 1469 1470 1471 1472 1472 1472 1473
1471 1470 1467 1464 1461 1457 1458 1461 1462 1460 1457 1458 1457 1456 1456 1455 1454 1455 1455 1455 1455 1454 1454 1454 1455 1456 1457 1458 1459 1460 1461 1462 1463 1464 1465 1466 1467 1467 1468 1468 1469 1469 1469 1470
1471 1471 1468 1465 1460 1459 1458 1461 1461 1461 1456 1458 1458 1456 1456 1455 1453 1455 1456 1455 1455 1455 1455 1455 1455 1456 1457 1458 1459 1459 1460 1461 1462 1463 1464 1464 1465 1465 1465 1466 1466 1466 1466 1466
1471 1471 1470 1465 1462 1458 1462 1462 1460 1460 1458 1459 1457 1456 1456 1456 1456 1456 1455 1455 1455 1454 1455 1455 1455 1456 1457 1458 1458 1459 1459 1460 1461 1461 1462 1462 1463 1463 1463 1463 1463 1463 1463 1463
1471 1469 1469 1465 1463 1463 1463 1461 1461 1460 1459 1458 1457 1456 1456 1455 1455 1454 1454 1454 1454 1453 1454 1454 1455 1455 1456 1457 1458 1458 1458 1459 1459 1460 1460 1460 1460 1461 1461 1461 1461 1461 1461 1460
1470 1470 1466 1465 1464 1464 1463 1463 1462 1460 1459 1457 1456 1456 1455 1454 1454 1454 1453 1453 1453 1453 1453 1454 1454 1455 1455 1456 1457 1457 1457 1458 1458 1458 1458 1458 1458 1458 1458 1458 1458 1458 1458 1457
1470 1471 1468 1465 1463 1463 1463 1462 1460 1459 1458 1457 1456 1455 1454 1453 1453 1453 1453 1452 1452 1452 1453 1453 1453 1454 1454 1455 1455 1455 1456 1456 1456 1456 1456 1456 1456 1456 1456 1456 1456 1456 1455 1455
1469 1468 1466 1463 1463 1462 1460 1460 1459 1458 1457 1456 1455 1454 1453 1452 1452 1452 1452 1452 1452 1452 1452 1452 1452 1452 1453 1453 1453 1453 1454 1454 1454 1454 1454 1454 1454 1454 1454 1454 1454 1453 1453 1453
1467 1467 1464 1460 1461 1461 1459 1458 1457 1456 1455 1455 1453 1453 1452 1451 1451 1451 1451 1451 1450 1450 1451 1451 1451 1451 1451 1451 1451 1452 1452 1452 1452 1452 1452 1452 1452 1452 1451 1451 1451 1451 1451 1450